timestamp,wind_dir_avg,wind_spd_max_dir,wind_spd_avg,wind_spd_gust,battery_voltage,lat,long
2018-12-11 00:00:00+00:00,327.0,324.0,3.6,4.23,,47.59359,-54.27349
2018-12-11 00:10:00+00:00,352.0,340.0,3.1,3.95,,47.59359,-54.27349
2018-12-11 00:20:00+00:00,9.0,12.0,4.16,4.96,,47.59359,-54.27349
2018-12-11 00:30:00+00:00,23.0,28.0,3.97,4.6,,47.59359,-54.27349
2018-12-11 00:40:00+00:00,8.0,10.0,5.06,5.55,,47.59359,-54.27349
2018-12-11 00:50:00+00:00,21.0,17.0,4.95,5.92,,47.59359,-54.27349
2018-12-11 01:00:00+00:00,14.0,12.0,5.42,6.09,,47.59359,-54.27349
2018-12-11 01:10:00+00:00,12.0,9.0,5.15,5.83,,47.59359,-54.27349
2018-12-11 01:20:00+00:00,7.0,4.0,5.58,6.17,,47.59359,-54.27349
2018-12-11 01:30:00+00:00,5.0,358.0,5.63,6.38,,47.59359,-54.27349
2018-12-11 01:40:00+00:00,1.0,1.0,4.54,5.39,,47.59359,-54.27349
2018-12-11 01:50:00+00:00,17.0,18.0,4.77,5.39,,47.59359,-54.27349
2018-12-11 02:00:00+00:00,12.0,13.0,4.83,5.61,,47.59359,-54.27349
2018-12-11 02:10:00+00:00,17.0,11.0,4.11,4.72,,47.59359,-54.27349
2018-12-11 02:20:00+00:00,32.0,32.0,3.85,4.69,,47.59359,-54.27349
2018-12-11 02:30:00+00:00,18.0,8.0,3.55,4.04,,47.59359,-54.27349
2018-12-11 02:40:00+00:00,7.0,356.0,3.08,4.13,,47.59359,-54.27349
2018-12-11 02:50:00+00:00,353.0,2.0,3.28,4.03,,47.59359,-54.27349
2018-12-11 03:00:00+00:00,7.0,5.0,3.28,3.86,,47.59359,-54.27349
2018-12-11 03:10:00+00:00,326.0,331.0,3.88,5.23,,47.59359,-54.27349
2018-12-11 03:20:00+00:00,358.0,356.0,3.31,4.2,,47.59359,-54.27349
2018-12-11 03:30:00+00:00,359.0,0.0,3.76,4.21,,47.59359,-54.27349
2018-12-11 03:40:00+00:00,349.0,342.0,3.53,4.12,,47.59359,-54.27349
2018-12-11 03:50:00+00:00,345.0,352.0,2.39,2.96,,47.59359,-54.27349
2018-12-11 04:00:00+00:00,358.0,358.0,2.22,3.04,,47.59359,-54.27349
2018-12-11 04:10:00+00:00,1.0,4.0,1.22,1.51,,47.59359,-54.27349
2018-12-11 04:20:00+00:00,319.0,315.0,2.36,2.96,,47.59359,-54.27349
2018-12-11 04:30:00+00:00,339.0,322.0,2.64,4.04,,47.59359,-54.27349
2018-12-11 04:40:00+00:00,339.0,326.0,3.02,3.84,,47.59359,-54.27349
2018-12-11 04:50:00+00:00,325.0,326.0,3.92,4.64,,47.59359,-54.27349
2018-12-11 05:00:00+00:00,326.0,324.0,4.43,5.28,,47.59359,-54.27349
2018-12-11 05:10:00+00:00,341.0,344.0,3.16,3.66,,47.59359,-54.27349
2018-12-11 05:20:00+00:00,340.0,340.0,2.96,3.74,,47.59359,-54.27349
2018-12-11 05:30:00+00:00,300.0,302.0,3.86,4.66,,47.59359,-54.27349
2018-12-11 05:40:00+00:00,318.0,317.0,3.72,4.93,,47.59359,-54.27349
2018-12-11 05:50:00+00:00,337.0,337.0,3.46,4.33,,47.59359,-54.27349
2018-12-11 06:00:00+00:00,329.0,334.0,4.85,5.59,,47.59359,-54.27349
2018-12-11 06:10:00+00:00,323.0,322.0,6.29,7.76,,47.59359,-54.27349
2018-12-11 06:20:00+00:00,329.0,324.0,7.43,8.25,,47.59359,-54.27349
2018-12-11 06:30:00+00:00,332.0,330.0,6.79,7.49,,47.59359,-54.27349
2018-12-11 06:40:00+00:00,325.0,324.0,7.45,8.46,,47.59359,-54.27349
2018-12-11 06:50:00+00:00,324.0,323.0,6.2,6.93,,47.59359,-54.27349
2018-12-11 07:00:00+00:00,327.0,337.0,5.42,6.25,,47.59359,-54.27349
2018-12-11 07:10:00+00:00,320.0,318.0,6.02,6.83,,47.59359,-54.27349
2018-12-11 07:20:00+00:00,322.0,326.0,5.9,6.84,,47.59359,-54.27349
2018-12-11 07:30:00+00:00,307.0,313.0,5.3,6.11,,47.59359,-54.27349
2018-12-11 07:40:00+00:00,297.0,293.0,4.83,5.65,,47.59359,-54.27349
2018-12-11 07:50:00+00:00,295.0,297.0,4.45,5.12,,47.59359,-54.27349
2018-12-11 08:00:00+00:00,278.0,274.0,3.84,4.19,,47.59359,-54.27349
2018-12-11 08:10:00+00:00,284.0,295.0,2.9,3.74,,47.59359,-54.27349
2018-12-11 08:20:00+00:00,302.0,298.0,4.98,6.04,,47.59359,-54.27349
2018-12-11 08:30:00+00:00,282.0,279.0,4.95,6.7,,47.59359,-54.27349
2018-12-11 08:40:00+00:00,272.0,291.0,4.16,5.14,,47.59359,-54.27349
2018-12-11 08:50:00+00:00,284.0,277.0,4.68,6.21,,47.59359,-54.27349
2018-12-11 09:00:00+00:00,281.0,286.0,4.1,4.68,,47.59359,-54.27349
2018-12-11 09:10:00+00:00,269.0,264.0,3.45,4.15,,47.59359,-54.27349
2018-12-11 09:20:00+00:00,265.0,272.0,3.4,4.38,,47.59359,-54.27349
2018-12-11 09:30:00+00:00,303.0,272.0,2.73,3.7,,47.59359,-54.27349
2018-12-11 09:40:00+00:00,298.0,309.0,4.93,6.16,,47.59359,-54.27349
2018-12-11 09:50:00+00:00,302.0,300.0,5.27,6.47,,47.59359,-54.27349
2018-12-11 10:00:00+00:00,305.0,300.0,5.89,6.88,,47.59359,-54.27349
2018-12-11 10:10:00+00:00,305.0,307.0,5.48,6.07,,47.59359,-54.27349
2018-12-11 10:20:00+00:00,301.0,295.0,5.46,6.47,,47.59359,-54.27349
2018-12-11 10:30:00+00:00,309.0,315.0,6.05,6.91,,47.59359,-54.27349
2018-12-11 10:40:00+00:00,305.0,298.0,5.66,6.45,,47.59359,-54.27349
2018-12-11 10:50:00+00:00,298.0,294.0,5.86,7.3,,47.59359,-54.27349
2018-12-11 11:00:00+00:00,295.0,298.0,5.45,6.25,,47.59359,-54.27349
2018-12-11 11:10:00+00:00,299.0,303.0,6.27,7.36,,47.59359,-54.27349
2018-12-11 11:20:00+00:00,305.0,304.0,6.6,7.59,,47.59359,-54.27349
2018-12-11 11:30:00+00:00,308.0,308.0,6.63,7.85,,47.59359,-54.27349
2018-12-11 11:40:00+00:00,298.0,296.0,6.75,7.92,,47.59359,-54.27349
2018-12-11 11:50:00+00:00,302.0,311.0,7.47,9.55,,47.59359,-54.27349
2018-12-11 12:00:00+00:00,305.0,303.0,7.57,9.49,,47.59359,-54.27349
2018-12-11 12:10:00+00:00,315.0,314.0,7.49,8.67,,47.59359,-54.27349
2018-12-11 12:20:00+00:00,315.0,314.0,7.03,8.12,,47.59359,-54.27349
2018-12-11 12:30:00+00:00,314.0,307.0,7.67,9.19,,47.59359,-54.27349
2018-12-11 12:40:00+00:00,314.0,316.0,8.42,10.75,,47.59359,-54.27349
2018-12-11 12:50:00+00:00,324.0,320.0,7.5,9.05,,47.59359,-54.27349
2018-12-11 13:00:00+00:00,337.0,338.0,8.65,10.07,,47.59359,-54.27349
2018-12-11 13:10:00+00:00,353.0,357.0,8.74,10.31,,47.59359,-54.27349
2018-12-11 13:20:00+00:00,353.0,354.0,8.68,9.92,,47.59359,-54.27349
2018-12-11 13:30:00+00:00,350.0,346.0,9.21,10.37,,47.59359,-54.27349
2018-12-11 13:40:00+00:00,347.0,346.0,9.71,12.65,,47.59359,-54.27349
2018-12-11 13:50:00+00:00,356.0,2.0,10.42,12.84,,47.59359,-54.27349
2018-12-11 14:00:00+00:00,359.0,3.0,10.15,11.47,,47.59359,-54.27349
2018-12-11 14:10:00+00:00,359.0,0.0,10.35,12.48,,47.59359,-54.27349
2018-12-11 14:20:00+00:00,355.0,359.0,11.2,13.43,,47.59359,-54.27349
2018-12-11 14:30:00+00:00,359.0,355.0,9.44,10.68,,47.59359,-54.27349
2018-12-11 14:40:00+00:00,2.0,2.0,9.15,10.2,,47.59359,-54.27349
2018-12-11 14:50:00+00:00,1.0,2.0,9.63,10.42,,47.59359,-54.27349
2018-12-11 15:00:00+00:00,358.0,347.0,9.07,10.77,,47.59359,-54.27349
2018-12-11 15:10:00+00:00,3.0,7.0,10.06,10.93,,47.59359,-54.27349
2018-12-11 15:20:00+00:00,3.0,5.0,8.94,10.71,,47.59359,-54.27349
2018-12-11 15:30:00+00:00,358.0,353.0,10.29,11.87,,47.59359,-54.27349
2018-12-11 15:40:00+00:00,7.0,19.0,11.03,12.44,,47.59359,-54.27349
2018-12-11 15:50:00+00:00,359.0,357.0,9.66,11.2,,47.59359,-54.27349
2018-12-11 16:00:00+00:00,1.0,5.0,9.23,10.75,,47.59359,-54.27349
2018-12-11 16:10:00+00:00,355.0,346.0,8.43,11.57,,47.59359,-54.27349
2018-12-11 16:20:00+00:00,1.0,6.0,8.38,10.28,,47.59359,-54.27349
2018-12-11 16:30:00+00:00,355.0,359.0,10.75,13.62,,47.59359,-54.27349
2018-12-11 16:40:00+00:00,0.0,0.0,10.11,12.53,,47.59359,-54.27349
2018-12-11 16:50:00+00:00,356.0,355.0,10.18,11.74,,47.59359,-54.27349
2018-12-11 17:00:00+00:00,0.0,7.0,9.51,11.37,,47.59359,-54.27349
2018-12-11 17:10:00+00:00,358.0,350.0,8.69,9.64,,47.59359,-54.27349
2018-12-11 17:20:00+00:00,358.0,355.0,9.43,10.6,,47.59359,-54.27349
2018-12-11 17:30:00+00:00,0.0,2.0,10.06,11.77,,47.59359,-54.27349
2018-12-11 17:40:00+00:00,3.0,7.0,11.03,12.13,,47.59359,-54.27349
2018-12-11 17:50:00+00:00,0.0,2.0,9.68,11.78,,47.59359,-54.27349
2018-12-11 18:00:00+00:00,350.0,346.0,8.91,9.75,,47.59359,-54.27349
2018-12-11 18:10:00+00:00,354.0,347.0,6.95,8.68,,47.59359,-54.27349
2018-12-11 18:20:00+00:00,352.0,346.0,8.1,9.07,,47.59359,-54.27349
2018-12-11 18:30:00+00:00,347.0,340.0,6.36,7.97,,47.59359,-54.27349
2018-12-11 18:40:00+00:00,333.0,329.0,5.94,6.88,,47.59359,-54.27349
2018-12-11 18:50:00+00:00,336.0,338.0,5.86,6.69,,47.59359,-54.27349
2018-12-11 19:00:00+00:00,330.0,324.0,6.76,7.46,,47.59359,-54.27349
2018-12-11 19:10:00+00:00,334.0,331.0,7.49,9.1,,47.59359,-54.27349
2018-12-11 19:20:00+00:00,339.0,339.0,6.97,8.24,,47.59359,-54.27349
2018-12-11 19:30:00+00:00,346.0,344.0,6.57,7.4,,47.59359,-54.27349
2018-12-11 19:40:00+00:00,353.0,351.0,6.19,7.09,,47.59359,-54.27349
2018-12-11 19:50:00+00:00,353.0,352.0,6.42,7.83,,47.59359,-54.27349
2018-12-11 20:00:00+00:00,349.0,0.0,6.23,7.2,,47.59359,-54.27349
2018-12-11 20:10:00+00:00,338.0,333.0,5.88,7.04,,47.59359,-54.27349
2018-12-11 20:20:00+00:00,345.0,346.0,6.95,7.77,,47.59359,-54.27349
2018-12-11 20:30:00+00:00,338.0,340.0,5.36,6.07,,47.59359,-54.27349
2018-12-11 20:40:00+00:00,324.0,325.0,7.17,8.1,,47.59359,-54.27349
2018-12-11 20:50:00+00:00,326.0,321.0,6.52,7.38,,47.59359,-54.27349
2018-12-11 21:00:00+00:00,337.0,335.0,7.03,8.11,,47.59359,-54.27349
2018-12-11 21:10:00+00:00,345.0,345.0,6.04,6.87,,47.59359,-54.27349
2018-12-11 21:20:00+00:00,343.0,345.0,6.72,8.07,,47.59359,-54.27349
2018-12-11 21:30:00+00:00,357.0,351.0,5.69,7.06,,47.59359,-54.27349
2018-12-11 21:40:00+00:00,18.0,13.0,5.67,6.61,,47.59359,-54.27349
2018-12-11 21:50:00+00:00,6.0,11.0,5.37,6.73,,47.59359,-54.27349
2018-12-11 22:00:00+00:00,12.0,15.0,4.45,4.96,,47.59359,-54.27349
2018-12-11 22:10:00+00:00,1.0,359.0,4.87,5.74,,47.59359,-54.27349
2018-12-11 22:20:00+00:00,6.0,348.0,4.48,5.17,,47.59359,-54.27349
2018-12-11 22:30:00+00:00,3.0,3.0,3.73,4.47,,47.59359,-54.27349
2018-12-11 22:40:00+00:00,12.0,12.0,3.78,4.58,,47.59359,-54.27349
2018-12-11 22:50:00+00:00,31.0,18.0,3.57,4.52,,47.59359,-54.27349
2018-12-11 23:00:00+00:00,11.0,359.0,3.63,4.78,,47.59359,-54.27349
2018-12-11 23:10:00+00:00,22.0,19.0,2.67,3.59,,47.59359,-54.27349
2018-12-11 23:20:00+00:00,3.0,2.0,4.39,5.12,,47.59359,-54.27349
2018-12-11 23:30:00+00:00,343.0,349.0,4.0,4.9,,47.59359,-54.27349
2018-12-11 23:40:00+00:00,332.0,329.0,4.55,5.16,,47.59359,-54.27349
2018-12-11 23:50:00+00:00,336.0,335.0,3.11,3.68,,47.59359,-54.27349
